Weather History for KAKR - September, 2012

Change the Weather History Date:

Saturday, September 22, 2012

  Actual Average (KCAK) Record (KCAK)
Temperature  
Mean Temperature 54 °F 61 °F  
Max Temperature 64 °F 71 °F 93 °F (1908)
Min Temperature 45 °F 51 °F 38 °F (1976)
Degree Days  
Heating Degree Days 10 6  
Month to date heating degree days 62  
Since 1 July heating degree days 82  
Cooling Degree Days 0 1  
Month to date cooling degree days 57  
Year to date cooling degree days 639  
Growing Degree Days 4 (Base 50)    
Moisture  
Dew Point 49 °F    
Average Humidity 87    
Maximum Humidity 100    
Minimum Humidity 48    
Precipitation  
Precipitation 0.86 in 0.11 in 1.17 in (1989)
Month to date precipitation 2.58  
Year to date precipitation 29.78  
Snow  
Snow 0.00 in 0.00 in - ()
Month to date snowfall 0.0  
Since 1 July snowfall 0.0  
Since 1 September snowfall 0.0  
Snow Depth -    
Sea Level Pressure  
Sea Level Pressure 29.84 in    
Wind  
Wind Speed 7 mph (West)    
Max Wind Speed 14 mph    
Max Gust Speed 21 mph    
Visibility 8 miles    
Events Rain    
T = Trace of Precipitation, MM = Missing Value Source: NWS Daily Summary

Daily Weather History Graph

Daily Weather History Graph

Search for Another Location

Airport or City:

Trip Planner

Search our weather history database for the weather conditions in past years. The results will help you decide how hot, cold, wet, or windy it might be!

Date:

Astronomy

Sep. 22, 2012 Rise Set
Actual Time 7:13 AM EDT 7:22 PM EDT
Civil Twilight 6:46 AM EDT 7:49 PM EDT
Nautical Twilight 6:14 AM EDT 8:21 PM EDT
Astronomical Twilight 5:41 AM EDT 8:54 PM EDT
Moon 2:33 PM EDT (9/22) No Moon Set
Length of Visible Light 13h 03m
Length of Day
12h 08m
Waxing Crescent, 48% of the Moon is Illuminated
Sep 22
Waxing Crescent
Sep 22
First Quarter
Sep 29
Full
Oct 8
Last Quarter
Oct 15
New

Hourly Weather History & Observations

Time (EDT) Temp. Windchill Dew Point Humidity Pressure Visibility Wind Dir Wind Speed Gust Speed Precip Events Conditions
12:31 AM 51.8 °F - 50.0 °F 94% 29.78 in 4.0 mi North 5.8 mph - 0.19 in Rain Heavy Rain
12:45 AM 51.8 °F - 50.0 °F 94% 29.75 in 5.0 mi ENE 6.9 mph - 0.23 in Rain Rain
12:52 AM 51.8 °F - 51.8 °F 100% 29.74 in 5.0 mi ENE 6.9 mph - 0.24 in Rain Rain
12:54 AM 52.0 °F - 51.1 °F 97% 29.73 in 6.0 mi ENE 5.8 mph - 0.24 in Rain Light Rain
1:16 AM 51.8 °F - 51.8 °F 100% 29.74 in 2.5 mi Calm Calm - 0.10 in Rain Heavy Rain
1:33 AM 53.6 °F - 51.8 °F 94% 29.73 in 1.8 mi North 5.8 mph - 0.32 in Rain Heavy Rain
1:42 AM 51.8 °F - 51.8 °F 100% 29.73 in 3.0 mi ENE 8.1 mph - 0.36 in Rain Rain
1:54 AM 52.0 °F - 51.1 °F 97% 29.73 in 8.0 mi Calm Calm - 0.37 in Rain Light Rain
2:17 AM 53.6 °F - 51.8 °F 94% 29.73 in 10.0 mi Calm Calm - 0.01 in Rain Light Rain
2:54 AM 53.1 °F - 51.1 °F 93% 29.73 in 10.0 mi Calm Calm - 0.02 in Rain Light Rain
3:54 AM 53.1 °F - 51.1 °F 93% 29.72 in 10.0 mi South 3.5 mph - 0.01 in Rain Light Rain
4:15 AM 53.6 °F - 51.8 °F 94% 29.75 in 10.0 mi Calm Calm - 0.00 in   Overcast
4:54 AM 53.1 °F - 51.1 °F 93% 29.74 in 10.0 mi Calm Calm - 0.00 in   Overcast
5:54 AM 53.1 °F - 52.0 °F 96% 29.75 in 10.0 mi SSW 6.9 mph - N/A   Overcast
6:47 AM 53.6 °F - 51.8 °F 94% 29.78 in 8.0 mi WSW 10.4 mph - N/A   Overcast
6:54 AM 54.0 °F - 52.0 °F 93% 29.78 in 7.0 mi WSW 9.2 mph - N/A   Overcast
7:52 AM 53.6 °F - 51.8 °F 94% 29.80 in 7.0 mi West 9.2 mph - N/A   Overcast
7:54 AM 54.0 °F - 52.0 °F 93% 29.79 in 7.0 mi West 8.1 mph - N/A   Overcast
8:54 AM 54.0 °F - 52.0 °F 93% 29.80 in 10.0 mi WSW 9.2 mph - N/A   Overcast
9:54 AM 54.0 °F - 51.1 °F 90% 29.84 in 10.0 mi West 12.7 mph - N/A   Overcast
10:54 AM 55.0 °F - 51.1 °F 86% 29.85 in 10.0 mi West 9.2 mph - N/A   Overcast
11:01 AM 55.4 °F - 51.8 °F 88% 29.86 in 10.0 mi West 6.9 mph - N/A   Overcast
11:09 AM 55.4 °F - 51.8 °F 88% 29.86 in 10.0 mi West 8.1 mph - N/A   Overcast
11:46 AM 57.2 °F - 51.8 °F 82% 29.86 in 10.0 mi West 11.5 mph - N/A   Overcast
11:54 AM 57.0 °F - 50.0 °F 77% 29.86 in 10.0 mi West 10.4 mph - N/A   Overcast
12:43 PM 60.8 °F - 48.2 °F 63% 29.87 in 10.0 mi West 10.4 mph - N/A   Partly Cloudy
12:54 PM 60.1 °F - 48.0 °F 64% 29.86 in 10.0 mi WSW 9.2 mph - N/A   Partly Cloudy
1:54 PM 62.1 °F - 48.0 °F 60% 29.86 in 10.0 mi SW 8.1 mph - N/A   Scattered Clouds
2:54 PM 63.0 °F - 46.0 °F 54% 29.84 in 10.0 mi West 13.8 mph 18.4 mph N/A   Mostly Cloudy
3:54 PM 64.9 °F - 45.0 °F 48% 29.82 in 10.0 mi SSW 13.8 mph - N/A   Clear
4:54 PM 55.0 °F - 48.9 °F 80% 29.86 in 9.0 mi WNW 13.8 mph - 0.01 in Rain Light Rain
5:01 PM 53.6 °F - 48.2 °F 82% 29.86 in 3.0 mi NW 12.7 mph 20.7 mph 0.04 in Rain Light Rain
5:20 PM 51.8 °F - 48.2 °F 88% 29.87 in 1.8 mi NW 8.1 mph 17.3 mph 0.12 in Rain Heavy Rain
5:28 PM 51.8 °F - 48.2 °F 88% 29.88 in 3.0 mi NW 8.1 mph - 0.12 in Rain Light Rain
5:54 PM 51.1 °F - 48.0 °F 89% 29.93 in 3.0 mi WNW 12.7 mph 20.7 mph 0.18 in Rain Rain
6:54 PM 51.1 °F - 46.9 °F 86% 29.95 in 10.0 mi West 6.9 mph - 0.03 in   Overcast
7:54 PM 50.0 °F - 46.9 °F 89% 29.99 in 10.0 mi West 8.1 mph - N/A   Mostly Cloudy
8:22 PM 50.0 °F - 46.4 °F 87% 30.01 in 10.0 mi West 10.4 mph - 0.00 in   Overcast
8:54 PM 48.0 °F - 45.0 °F 89% 30.03 in 10.0 mi WNW 11.5 mph 18.4 mph 0.00 in   Scattered Clouds
9:54 PM 46.9 °F - 43.0 °F 86% 30.06 in 10.0 mi West 10.4 mph - N/A   Partly Cloudy
10:54 PM 45.0 °F 40.1 °F 42.1 °F 90% 30.08 in 10.0 mi West 9.2 mph - N/A   Clear
11:54 PM 45.0 °F 40.6 °F 42.1 °F 90% 30.08 in 10.0 mi West 8.1 mph - N/A   Clear